SCOUT X-4 DEB, 2088

Orbit data source: Space-Track

SCOUT X-4 DEB, 2088 is space debris in LEO originally from a launch on Fri, 19 Nov 1965 UTC launched from the Wallops Island (WLPIS). Debris objects in space refer to the collection of defunct objects orbiting the Earth. Examples of debris include non-operational satellites, rocket bodies, and fragments generated from explosions, collisions, or faulty payload assembly.

Loading next visibility...
Identifier
2088, 1965-093D
Orbit
LEO
Country
Flag of USUS
Related business
Manufacturer
Unknown
Mission
Spacecraft
Bus & Motor
Unknown
Mass
Unknown
Launch date (UTC)
1965-11-19 (60 years ago)
Launch vehicle
Unknown
Launch site
Wallops Island (WLPIS)
Object type
Payload
Rocket body
Debris
Shape & HBR
Unknown shape, 0.1 m
Radar Cross Section
Small (<0.1 m²)

Expand to show TLE details & history
Last TLE update: 12 hours ago

TLE from 12 hours ago
0 SCOUT X-4 DEB
1 02088U 65093D   26037.81046672  .00002011  00000-0  41929-3 0  9995
2 02088  59.7159 288.4966 0069442 303.3574  56.0839 14.61963966134830
Epoch: 2026-02-06T19:27Z
TLE epoch observation values (Epoch: 2026-02-06T19:27:04.324Z)
Latitude
-0.00007°
Longitude
-140.21446°
Altitude
661.228 km
Speed
7.542 km/s
True Right ascension
19h 13m 59s
True Declination
0° 00' 00"
Sunlit
Object was in daylight at epoch
Visualization orbit readout
Latitude
Unknown
Longitude
Unknown
Altitude
Unknown
Speed
Unknown
Apparent Right ascension
Unknown
Apparent Declination
Unknown
Sunlit
N/A
Visualization observer readout
Local Sidereal Time
09:38:10
Azimuth
Unknown
Elevation
Unknown
Doppler factor
Unknown
Orbital elements
Apogee altitude
735.161 km
Perigee altitude
637.049 km
Semi-major axis
7,064.242 km
Eccentricity
0.00694
Inclination
59.7159°
RAAN
288.4966°
Arg. of periapsis
303.3574°
True anomaly
56.74745°
Mean anomaly
56.0839°
Eccentric anomaly
56.41536°
Mean motion
3.65548 °/min
Orbital period
98.48 mins
BSTAR
0.00041929
Loading maneuver chart data...
Computing Atmospheric mass density...
Loading historical data...
Loading historical data...
Loading historical data...
Loading historical data...
Loading historical data...
Loading historical data...
Loading historical data...
Other satellites on launch #93 in the year 1965 (1965-11-19 UTC)

Documentation

Showing up to 5 results
|